Weather History for New Orleans Lakefront, LA

Change the Weather History Date:

Tuesday, September 10, 2013

  Actual Average Record
Temperature  
Mean Temperature 81 °F 81 °F  
Max Temperature 89 °F 89 °F 101 °F (1980)
Min Temperature 73 °F 74 °F 62 °F (1964)
Degree Days  
Heating Degree Days 0 0  
Month to date heating degree days 0 0  
Since 1 July heating degree days 0 0  
Cooling Degree Days 16 16  
Month to date cooling degree days 179 168  
Year to date cooling degree days 2315 2414  
Growing Degree Days 35 (Base 50)    
Moisture  
Dew Point 74 °F    
Average Humidity 76    
Maximum Humidity 93    
Minimum Humidity 59    
Precipitation  
Precipitation 0.00 in 0.18 in 3.22 in (1960)
Month to date precipitation 3.42 1.91  
Year to date precipitation 53.73 46.12  
Snow  
Snow 0.00 in - - ()
Month to date snowfall 0.0  
Since 1 July snowfall 0.0  
Since 1 September snowfall 0.0  
Snow Depth 0.00 in    
Sea Level Pressure  
Sea Level Pressure 30.06 in    
Wind  
Wind Speed 6 mph (East)    
Max Wind Speed 16 mph    
Max Gust Speed 21 mph    
Visibility 10 miles    
Events Rain    
T = Trace of Precipitation, MM = Missing Value Source: NWS Daily Summary

Daily Weather History Graph

Daily Weather History Graph

Search for Another Location

Airport:

Trip Planner

Search our weather history database for the weather conditions in past years. The results will help you decide how hot, cold, wet, or windy it might be!

Date:

Astronomy

Sep. 10, 2013 Rise Set
Actual Time 6:42 AM CDT 7:11 PM CDT
Civil Twilight 6:18 AM CDT 7:35 PM CDT
Nautical Twilight 5:49 AM CDT 8:03 PM CDT
Astronomical Twilight 5:21 AM CDT 8:32 PM CDT
Moon 11:42 AM CDT (9/10) 10:40 PM CDT (9/10)
Length of Visible Light 13h 17m
Length of Day
12h 29m
Waxing Crescent, 28% of the Moon is Illuminated
Sep 10
Waxing Crescent
Sep 12
First Quarter
Sep 19
Full
Sep 26
Last Quarter
Oct 4
New

Hourly Weather History & Observations

Time (CDT) Temp. Heat Index Dew Point Humidity Pressure Visibility Wind Dir Wind Speed Gust Speed Precip Events Conditions
12:53 AM 80.1 °F 84.2 °F 73.0 °F 79% 30.01 in 10.0 mi SE 4.6 mph - N/A   Clear
1:53 AM 81.0 °F 85.8 °F 73.0 °F 77% 30.01 in 10.0 mi ESE 4.6 mph - N/A   Clear
2:53 AM 81.0 °F 85.8 °F 73.0 °F 77% 30.01 in 10.0 mi ESE 4.6 mph - N/A   Clear
3:53 AM 81.0 °F 85.8 °F 73.0 °F 77% 30.01 in 10.0 mi East 4.6 mph - N/A   Clear
4:53 AM 82.0 °F 87.9 °F 73.9 °F 76% 30.02 in 10.0 mi East 3.5 mph - N/A   Clear
5:53 AM 82.9 °F 89.4 °F 73.9 °F 74% 30.03 in 10.0 mi NE 5.8 mph - N/A   Clear
6:53 AM 82.9 °F 90.8 °F 75.9 °F 79% 30.05 in 8.0 mi ENE 9.2 mph - N/A   Clear
7:53 AM 82.9 °F 90.8 °F 75.9 °F 79% 30.07 in 9.0 mi ENE 10.4 mph - N/A   Clear
8:53 AM 84.0 °F 92.6 °F 75.9 °F 76% 30.09 in 9.0 mi ENE 11.5 mph - N/A   Partly Cloudy
9:53 AM 86.0 °F 96.0 °F 75.9 °F 72% 30.09 in 10.0 mi ENE 10.4 mph - N/A   Partly Cloudy
10:53 AM 87.1 °F 97.3 °F 75.9 °F 69% 30.09 in 10.0 mi ENE 11.5 mph - N/A   Scattered Clouds
11:31 AM 84.2 °F 92.3 °F 75.2 °F 74% 30.11 in 10.0 mi ESE 6.9 mph - N/A   Mostly Cloudy
11:41 AM 84.2 °F 90.9 °F 73.4 °F 70% 30.11 in 10.0 mi SE 13.8 mph 18.4 mph 0.00 in Rain Rain
11:53 AM 84.0 °F 90.2 °F 73.0 °F 69% 30.09 in 10.0 mi ESE 6.9 mph - 0.00 in Rain Rain
12:53 PM 90.0 °F 100.2 °F 75.0 °F 61% 30.08 in 10.0 mi East 16.1 mph - 0.00 in Rain Rain
1:53 PM 89.1 °F 96.0 °F 72.0 °F 57% 30.07 in 10.0 mi ESE 15.0 mph - N/A   Partly Cloudy
2:53 PM 89.1 °F 98.0 °F 73.9 °F 61% 30.06 in 10.0 mi East 15.0 mph - N/A   Partly Cloudy
3:53 PM 89.1 °F 97.0 °F 73.0 °F 59% 30.04 in 10.0 mi East 12.7 mph - N/A   Partly Cloudy
4:53 PM 89.1 °F 95.0 °F 71.1 °F 55% 30.02 in 10.0 mi ESE 15.0 mph - N/A   Clear
5:53 PM 87.1 °F 94.5 °F 73.0 °F 63% 30.03 in 10.0 mi ESE 13.8 mph - N/A   Clear
6:53 PM 86.0 °F 92.2 °F 72.0 °F 63% 30.04 in 10.0 mi ESE 9.2 mph - N/A   Clear
7:53 PM 84.0 °F 91.2 °F 73.9 °F 72% 30.05 in 10.0 mi ESE 8.1 mph - N/A   Clear
8:53 PM 84.0 °F 91.9 °F 75.0 °F 74% 30.06 in 10.0 mi ESE 8.1 mph - N/A   Clear
9:53 PM 84.0 °F 91.2 °F 73.9 °F 72% 30.08 in 10.0 mi East 11.5 mph - N/A   Clear
10:53 PM 84.0 °F 89.6 °F 72.0 °F 67% 30.08 in 10.0 mi ESE 5.8 mph - N/A   Clear
11:53 PM 82.9 °F 88.0 °F 72.0 °F 69% 30.07 in 10.0 mi East 8.1 mph - N/A   Clear